COSMOS 2251 DEB, 34622

Orbit data source: Space-Track

COSMOS 2251 DEB, 34622 is space debris in LEO originally from a launch on Wed, 16 Jun 1993 UTC launched from the Plesetsk Missile And Space Complex (PKMTR). The debris from Iridium 33, an American commercial communications satellite, has been tracked extensively since its accidental collision with the defunct Russian satellite Cosmos 2251 in 2009. This event, occurring at high speed in low Earth orbit (LEO), generated thousands of pieces of space debris, significantly increasing the risk of further collisions. The Iridium 33 debris cloud has impacted space traffic management and orbital debris mitigation strategies, making it a subject of ongoing study in space situational awareness.

Loading next visibility...
Identifier
34622, 1993-036WT
Orbit
LEO
Country
Flag of CISCIS
Related business
Manufacturer
Unknown
Mission
Spacecraft
Bus & Motor
Unknown
Mass
Unknown
Launch date (UTC)
1993-06-16 (33 years ago)
Launch vehicle
Unknown
Launch site
Plesetsk Missile And Space Complex (PKMTR)
Object type
Payload
Rocket body
Debris
Shape & HBR
Unknown shape, 0.1 m
Radar Cross Section
Small (<0.1 m²)

Expand to show TLE details & history
Last TLE update: 9 hours ago

TLE from 9 hours ago
0 COSMOS 2251 DEB
1 34622U 93036WT  25355.12508234  .00001190  00000-0  51946-3 0  9992
2 34622  74.0429 291.9655 0104828  12.4249   3.0291 14.22076535865792
Epoch: 2025-12-21T03:00Z
TLE epoch observation values (Epoch: 2025-12-21T03:00:07.114Z)
Latitude
14.88726°
Longitude
161.32987°
Altitude
744.88 km
Speed
7.523 km/s
True Right ascension
19h 45m 12s
True Declination
14° 48' 07"
Sunlit
Object was in daylight at epoch
Visualization orbit readout
Latitude
Unknown
Longitude
Unknown
Altitude
Unknown
Speed
Unknown
Apparent Right ascension
Unknown
Apparent Declination
Unknown
Sunlit
N/A
Visualization observer readout
Local Sidereal Time
11:16:45
Azimuth
Unknown
Elevation
Unknown
Doppler factor
Unknown
Orbital elements
Apogee altitude
891.392 km
Perigee altitude
740.563 km
Semi-major axis
7,194.114 km
Eccentricity
0.01048
Inclination
74.0429°
RAAN
291.9655°
Arg. of periapsis
12.4249°
True anomaly
3.09342°
Mean anomaly
3.0291°
Eccentric anomaly
3.06117°
Mean motion
3.55695 °/min
Orbital period
101.21 mins
BSTAR
0.00051946
Loading maneuver chart data...
Computing Atmospheric mass density...
Loading historical data...
Loading historical data...
Loading historical data...
Loading historical data...
Loading historical data...
Loading historical data...
Loading historical data...

Documentation

Showing up to 5 results
|